Weather History for Savoonga, AK

Change the Weather History Date:

Tuesday, June 26, 2012

  Actual Average Record
Temperature  
Mean Temperature 40 °F -  
Max Temperature 48 °F 47 °F 57 °F (2000)
Min Temperature 33 °F 37 °F 33 °F (2002)
Degree Days  
Heating Degree Days 24    
Moisture  
Dew Point 36 °F    
Average Humidity 86    
Maximum Humidity 93    
Minimum Humidity 76    
Precipitation  
Precipitation 0.00 in - - ()
Sea Level Pressure  
Sea Level Pressure 29.66 in    
Wind  
Wind Speed 3 mph (NE)    
Max Wind Speed 10 mph    
Max Gust Speed -    
Visibility 9 miles    
Events      
Averages and records for this station are not official NWS values.
T = Trace of Precipitation, MM = Missing Value Source: NWS Daily Summary

Daily Weather History Graph

Daily Weather History Graph

Search for Another Location

Airport:

Trip Planner

Search our weather history database for the weather conditions in past years. The results will help you decide how hot, cold, wet, or windy it might be!

Date:

Astronomy

Jun. 26, 2012 Rise Set
Actual Time 5:04 AM AKDT 1:45 AM AKDT
Civil Twilight Sun does not rise Sun does not rise
Nautical Twilight Sun does not rise Sun does not rise
Astronomical Twilight Sun does not rise Sun does not rise
Moon 3:55 PM AKDT (6/26) 2:15 AM AKDT (6/26)
Length of Visible Light 24h 00m
Length of Day
20h 41m
Waxing Crescent, 46% of the Moon is Illuminated
Jun 26
Waxing Crescent
Jun 26
First Quarter
Jul 3
Full
Jul 10
Last Quarter
Jul 18
New

Hourly Weather History & Observations

Time (AKDT) Temp. Windchill Dew Point Humidity Pressure Visibility Wind Dir Wind Speed Gust Speed Precip Events Conditions
12:16 AM 35.6 °F 31.7 °F 32.0 °F 87% 29.65 in 8.0 mi NNW 4.6 mph - N/A   Overcast
12:36 AM 35.6 °F 31.7 °F 32.0 °F 87% 29.65 in 7.0 mi NNW 4.6 mph - N/A   Overcast
12:56 AM 35.6 °F 30.7 °F 30.2 °F 81% 29.65 in 8.0 mi NNW 5.8 mph - N/A   Overcast
1:16 AM 33.8 °F 28.6 °F 30.2 °F 87% 29.65 in 9.0 mi North 5.8 mph - N/A   Overcast
1:36 AM 33.8 °F - 32.0 °F 93% 29.65 in 10.0 mi Calm Calm - N/A   Overcast
1:56 AM 33.8 °F - 32.0 °F 93% 29.65 in 10.0 mi Calm Calm - N/A   Overcast
2:16 AM 33.8 °F - 32.0 °F 93% 29.65 in 10.0 mi Calm Calm - N/A   Overcast
2:36 AM 35.6 °F - 32.0 °F 87% 29.65 in 9.0 mi Calm Calm - N/A   Overcast
2:56 AM 35.6 °F - 32.0 °F 87% 29.65 in 9.0 mi Calm Calm - N/A   Overcast
3:16 AM 35.6 °F - 32.0 °F 87% 29.65 in 10.0 mi Calm Calm - N/A   Overcast
3:36 AM 35.6 °F 31.7 °F 32.0 °F 87% 29.65 in 10.0 mi North 4.6 mph - N/A   Overcast
3:56 AM 35.6 °F - 32.0 °F 87% 29.65 in 10.0 mi Calm Calm - N/A   Overcast
4:16 AM 33.8 °F - 32.0 °F 93% 29.66 in 10.0 mi Calm Calm - N/A   Overcast
4:36 AM 33.8 °F - 32.0 °F 93% 29.66 in 10.0 mi Calm Calm - N/A   Overcast
4:56 AM 35.6 °F - 32.0 °F 87% 29.66 in 9.0 mi Calm Calm - N/A   Overcast
5:16 AM 35.6 °F - 32.0 °F 87% 29.65 in 7.0 mi Calm Calm - N/A   Overcast
5:36 AM 33.8 °F - 32.0 °F 93% 29.65 in 4.0 mi Calm Calm - N/A   Overcast
5:56 AM 35.6 °F - 32.0 °F 87% 29.65 in 7.0 mi Calm Calm - N/A   Overcast
6:16 AM 35.6 °F - 32.0 °F 87% 29.65 in 9.0 mi Calm Calm - N/A   Overcast
6:36 AM 35.6 °F - 33.8 °F 93% 29.65 in 8.0 mi Calm Calm - N/A   Overcast
6:56 AM 35.6 °F - 32.0 °F 87% 29.65 in 8.0 mi Calm Calm - N/A   Overcast
7:16 AM 35.6 °F - 33.8 °F 93% 29.64 in 4.0 mi Calm Calm - N/A   Overcast
7:36 AM 35.6 °F - 33.8 °F 93% 29.64 in 8.0 mi Calm Calm - N/A   Overcast
7:56 AM 37.4 °F 34.9 °F 33.8 °F 87% 29.64 in 7.0 mi NE 3.5 mph - N/A   Overcast
8:16 AM 37.4 °F 34.9 °F 33.8 °F 87% 29.64 in 8.0 mi NE 3.5 mph - N/A   Overcast
8:36 AM 35.6 °F 31.7 °F 33.8 °F 93% 29.65 in 10.0 mi North 4.6 mph - N/A   Overcast
8:56 AM 35.6 °F - 33.8 °F 93% 29.66 in 10.0 mi Calm Calm - N/A   Overcast
9:16 AM 37.4 °F - 33.8 °F 87% 29.66 in 10.0 mi Calm Calm - N/A   Overcast
9:36 AM 37.4 °F - 33.8 °F 87% 29.66 in 10.0 mi Calm Calm - N/A   Overcast
9:56 AM 37.4 °F - 33.8 °F 87% 29.66 in 10.0 mi Calm Calm - N/A   Overcast
10:16 AM 37.4 °F 33.8 °F 35.6 °F 93% 29.66 in 10.0 mi ENE 4.6 mph - N/A   Overcast
10:36 AM 39.2 °F 34.2 °F 35.6 °F 87% 29.66 in 10.0 mi ENE 6.9 mph - N/A   Unknown
10:56 AM 39.2 °F 33.6 °F 35.6 °F 87% 29.66 in 10.0 mi ENE 8.1 mph - N/A   Overcast
11:16 AM 39.2 °F 33.6 °F 35.6 °F 87% 29.65 in 10.0 mi ENE 8.1 mph - N/A   Overcast
11:36 AM - - - N/A% - - North - - N/A   Unknown
11:56 AM 39.2 °F 33.6 °F 37.4 °F 93% 29.65 in 10.0 mi ENE 8.1 mph - N/A   Unknown
12:16 PM 39.2 °F 35.0 °F 37.4 °F 93% 29.66 in 10.0 mi ENE 5.8 mph - N/A   Overcast
12:36 PM 39.2 °F 33.6 °F 35.6 °F 87% 29.66 in 10.0 mi ENE 8.1 mph - N/A   Overcast
12:56 PM 39.2 °F 35.9 °F 37.4 °F 93% 29.66 in 10.0 mi East 4.6 mph - N/A   Overcast
2:16 PM 41.0 °F 37.1 °F 37.4 °F 87% 29.66 in 10.0 mi NE 5.8 mph - N/A   Overcast
2:36 PM 42.8 °F 40.1 °F 37.4 °F 81% 29.67 in 10.0 mi NE 4.6 mph - N/A   Overcast
2:56 PM 41.0 °F 37.1 °F 37.4 °F 87% 29.67 in 10.0 mi ENE 5.8 mph - N/A   Overcast
3:16 PM 42.8 °F 40.1 °F 37.4 °F 81% 29.67 in 10.0 mi ENE 4.6 mph - N/A   Overcast
3:36 PM 42.8 °F 39.3 °F 37.4 °F 81% 29.67 in 10.0 mi NE 5.8 mph - N/A   Overcast
3:56 PM 44.6 °F 40.7 °F 39.2 °F 81% 29.67 in 10.0 mi NE 6.9 mph - N/A   Overcast
4:16 PM 42.8 °F 38.6 °F 39.2 °F 87% 29.67 in 10.0 mi NE 6.9 mph - N/A   Overcast
4:36 PM 44.6 °F 40.7 °F 39.2 °F 81% 29.67 in 10.0 mi NE 6.9 mph - N/A   Overcast
4:56 PM 42.8 °F 39.3 °F 39.2 °F 87% 29.67 in 10.0 mi NE 5.8 mph - N/A   Overcast
5:16 PM 44.6 °F 40.7 °F 39.2 °F 81% 29.67 in 10.0 mi ENE 6.9 mph - N/A   Overcast
5:36 PM 44.6 °F 40.7 °F 37.4 °F 76% 29.67 in 10.0 mi ENE 6.9 mph - N/A   Overcast
5:56 PM 44.6 °F 40.2 °F 39.2 °F 81% 29.67 in 10.0 mi ENE 8.1 mph - N/A   Overcast
6:16 PM 44.6 °F 39.2 °F 39.2 °F 81% 29.67 in 10.0 mi East 10.4 mph - N/A   Overcast
6:36 PM 46.4 °F 42.4 °F 39.2 °F 76% 29.67 in 10.0 mi East 8.1 mph - N/A   Mostly Cloudy
6:56 PM 48.2 °F - 42.8 °F 82% 29.67 in 10.0 mi ENE 9.2 mph - N/A   Mostly Cloudy
7:16 PM 46.4 °F 42.9 °F 41.0 °F 81% 29.67 in 10.0 mi ENE 6.9 mph - N/A   Mostly Cloudy
7:36 PM 46.4 °F 42.4 °F 42.8 °F 87% 29.67 in 10.0 mi ENE 8.1 mph - N/A   Clear
7:56 PM 48.2 °F - 42.8 °F 82% 29.67 in 10.0 mi ENE 3.5 mph - N/A   Clear
8:36 PM 44.6 °F 41.4 °F 39.2 °F 81% 29.67 in 10.0 mi NE 5.8 mph - N/A   Overcast
8:56 PM 44.6 °F 42.2 °F 39.2 °F 81% 29.68 in 10.0 mi NE 4.6 mph - N/A   Overcast
9:16 PM 48.2 °F - 42.8 °F 82% 29.68 in 10.0 mi North 3.5 mph - N/A   Scattered Clouds
9:36 PM 46.4 °F 43.5 °F 39.2 °F 76% 29.68 in 10.0 mi NE 5.8 mph - N/A   Scattered Clouds
9:56 PM 44.6 °F 42.2 °F 39.2 °F 81% 29.68 in 10.0 mi ENE 4.6 mph - N/A   Mostly Cloudy
10:16 PM 42.8 °F 41.1 °F 39.2 °F 87% 29.68 in 10.0 mi ENE 3.5 mph - N/A   Partly Cloudy
10:36 PM 42.8 °F - 39.2 °F 87% 29.68 in 10.0 mi Calm Calm - N/A   Scattered Clouds
10:56 PM 42.8 °F 41.1 °F 39.2 °F 87% 29.69 in 10.0 mi ENE 3.5 mph - N/A   Scattered Clouds
11:16 PM 42.8 °F - 39.2 °F 87% 29.69 in 10.0 mi Calm Calm - N/A   Partly Cloudy
11:36 PM 42.8 °F - 39.2 °F 87% 29.69 in 10.0 mi Calm Calm - N/A   Partly Cloudy
11:56 PM 46.4 °F - 41.0 °F 81% 29.69 in 10.0 mi Calm Calm - N/A   Clear